Hourly Data Report for October 10, 2013

All times are specified in Local Standard Time (LST). Add 1 hour to adjust for Daylight Saving Time where and when it is observed.

PANGNIRTUNG
NUNAVUT

66°08'36.300" N
65°42'40.500" W
22.60 m
2403049
71826
WXP

Download Data

Hourly Data (October 2013)
Hourly Data Report for October 10, 2013
Temp Definition
°C
Dew Point Temp Definition
°C
Rel Hum Definition
%
Wind Dir Definition
10's deg

Wind Spd Definition
km/h
Visibility Definition
km
Stn Press Definition
kPa
Hmdx Definition


Wind Chill Definition


Weather Definition


TIME
00:00 -0.9 -7.4 61 10 7   100.18   -3 LegendNANA
01:00 -0.4 -8.1 56 9 7   100.26   -3 LegendNANA
02:00 -1.3 -8.4 58 11 11   100.32   -5 LegendNANA
03:00 -2.5 -8.4 64 10 15   100.39   -7 LegendNANA
04:00 -1.1 -9.3 54 10 11   100.48   -5 LegendNANA
05:00 -3.3 -9.7 61 9 11   100.56   -8 LegendNANA
06:00 -1.8 -10.2 53 13 11   100.64   -6 LegendNANA
07:00 -2.2 -10.3 54 11 15   100.70   -7 LegendNANA
08:00 -4.0 -10.7 60 11 13   100.76   -9 LegendNANA
09:00 -3.0 -10.6 56 12 7   100.82   -6 LegendNANA
10:00 -2.7 -10.9 53 20 4   100.87   -4 LegendNANA
11:00 -2.8 -10.2 57 17 4   100.91   -4 LegendNANA
12:00 -2.3 -10.3 54 16 2   100.96   -3 LegendNANA
13:00 -1.9 -7.6 65   0   101.02     LegendNANA
14:00 -2.2 -7.4 67 23 15   101.05   -7 LegendNANA
15:00 -2.1 -8.8 60 22 13   101.10   -7 LegendNANA
16:00 -2.6 -6.5 75 23 15   101.14   -8 LegendNANA
17:00 -3.1 -7.3 73 22 15   101.18   -8 LegendNANA
18:00 -4.1 -8.3 73 23 4   101.24   -6 LegendNANA
19:00 -4.4 -7.9 77 18 4   101.29   -6 LegendNANA
20:00 -4.8 -8.9 73 14 6   101.32   -8 LegendNANA
21:00 -4.9 -9.3 71 13 6   101.34   -8 LegendNANA
22:00 -5.2 -10.0 69 16 2   101.39   -6 LegendNANA
23:00 -6.4 -10.4 73 21 4   101.42   -8 LegendNANA

Notes on Data Quality.

Legend

  • E = Estimated
  • M = Missing
  • NA = Not Available
  • ‡ = Partner data that is not subject to review by the National Climate Archives
Date modified: